TimeEST,TemperatureF,Dew PointF,Humidity,Sea Level PressureIn,VisibilityMPH,Wind Direction,Wind SpeedMPH,Gust SpeedMPH,PrecipitationIn,Events,Conditions,WindDirDegrees,DateUTC
12:53 AM,28.0,16.0,61,30.01,10.0,NNW,5.8,-,N/A,,Clear,340,2013-01-02 05:53:00
1:53 AM,27.0,17.1,66,30.02,10.0,Calm,Calm,-,N/A,,Clear,0,2013-01-02 06:53:00
2:53 AM,27.0,16.0,63,30.03,10.0,NNW,4.6,-,N/A,,Clear,330,2013-01-02 07:53:00
3:53 AM,27.0,15.1,61,30.03,10.0,NNW,6.9,-,N/A,,Clear,340,2013-01-02 08:53:00
4:53 AM,27.0,15.1,61,30.04,10.0,NW,9.2,-,N/A,,Clear,320,2013-01-02 09:53:00
5:53 AM,26.1,12.9,58,30.05,10.0,NNW,6.9,-,N/A,,Clear,330,2013-01-02 10:53:00
7:53 AM,25.0,14.0,63,30.08,10.0,WNW,9.2,-,N/A,,Clear,290,2013-01-02 12:53:00
8:53 AM,26.1,14.0,60,30.10,10.0,WNW,10.4,-,N/A,,Clear,300,2013-01-02 13:53:00
10:53 AM,28.0,12.9,53,30.13,10.0,WNW,16.1,-,N/A,,Clear,300,2013-01-02 15:53:00
11:53 AM,28.9,12.9,51,30.12,10.0,WNW,15.0,-,N/A,,Partly Cloudy,290,2013-01-02 16:53:00
12:53 PM,30.0,12.9,49,30.10,10.0,NW,16.1,23.0,N/A,,Clear,310,2013-01-02 17:53:00
1:53 PM,30.9,12.9,47,30.10,10.0,NW,15.0,-,N/A,,Clear,320,2013-01-02 18:53:00
2:53 PM,30.9,14.0,50,30.11,10.0,NNW,12.7,-,N/A,,Clear,340,2013-01-02 19:53:00
3:53 PM,30.0,12.9,49,30.13,10.0,NW,11.5,-,N/A,,Clear,320,2013-01-02 20:53:00
4:53 PM,28.0,14.0,56,30.15,10.0,NW,9.2,-,N/A,,Clear,310,2013-01-02 21:53:00
6:53 PM,24.1,14.0,65,30.18,10.0,NW,6.9,-,N/A,,Clear,310,2013-01-02 23:53:00
7:53 PM,25.0,14.0,63,30.18,10.0,WNW,3.5,-,N/A,,Clear,290,2013-01-03 00:53:00
8:53 PM,23.0,14.0,68,30.19,10.0,WNW,5.8,-,N/A,,Clear,290,2013-01-03 01:53:00
9:53 PM,23.0,14.0,68,30.20,10.0,WNW,5.8,-,N/A,,Clear,300,2013-01-03 02:53:00
10:53 PM,23.0,14.0,68,30.23,10.0,WSW,3.5,-,N/A,,Clear,240,2013-01-03 03:53:00
11:53 PM,23.0,15.1,72,30.23,10.0,WNW,4.6,-,N/A,,Clear,300,2013-01-03 04:53:00